This is the latest recevied weather packets stored in our database for station/object GOLDWX. If no packets are shown the sender has not sent any weather packets the latest 10 day(s).
| Time | Temp. | Humidity | Pressure | Rain* | Wind** | Luminosity | Snow |
|---|---|---|---|---|---|---|---|
| 1778151732 | 11.67° C | 42% | 1018.9 hPa | 0 mm | - | - | - |
| 1778151130 | 11.67° C | 43% | 1018.9 hPa | 0 mm | - | - | - |
| 1778150528 | 11.11° C | 44% | 1019.1 hPa | 0 mm | - | - | - |
| 1778150229 | 11.11° C | 44% | 1019.1 hPa | 0 mm | - | - | - |
| 1778149625 | 10.56° C | 46% | 1019.2 hPa | 0 mm | - | - | - |
| 1778149324 | 11.11° C | 45% | 1019.1 hPa | 0 mm | - | - | - |
| 1778148722 | 11.11° C | 45% | 1019.2 hPa | 0 mm | - | - | - |
| 1778148421 | 11.11° C | 45% | 1019.1 hPa | 0 mm | - | - | - |
| 1778147820 | 11.11° C | 45% | 1019.3 hPa | 0 mm | - | - | - |
| 1778146917 | 11.11° C | 45% | 1019.2 hPa | 0 mm | - | - | - |
| 1778146617 | 11.67° C | 44% | 1019.3 hPa | 0 mm | - | - | - |
| 1778146015 | 11.67° C | 44% | 1019.4 hPa | 0 mm | - | - | - |
| 1778145714 | 11.67° C | 44% | 1019.3 hPa | 0 mm | - | - | - |
| 1778145112 | 11.67° C | 43% | 1019.5 hPa | 0 mm | - | - | - |
| 1778144812 | 11.67° C | 44% | 1019.5 hPa | 0 mm | - | - | - |
| 1778144210 | 11.67° C | 43% | 1019.5 hPa | 0 mm | - | - | - |
| 1778143910 | 11.67° C | 43% | 1019.5 hPa | 0 mm | - | - | - |
| 1778143307 | 11.67° C | 42% | 1019.4 hPa | 0 mm | - | - | - |
| 1778143005 | 12.22° C | 42% | 1019.5 hPa | 0 mm | - | - | - |
| 1778142103 | 12.78° C | 41% | 1019.6 hPa | 0 mm | - | - | - |
| 1778141501 | 12.78° C | 40% | 1019.5 hPa | 0 mm | - | - | - |
| 1778141200 | 13.33° C | 39% | 1019.5 hPa | 0 mm | - | - | - |
| 1778140598 | 12.78° C | 40% | 1019.5 hPa | 0 mm | - | - | - |
| 1778140298 | 12.78° C | 40% | 1019.5 hPa | 0 mm | - | - | - |
| 1778139696 | 13.89° C | 37% | 1019.3 hPa | 0 mm | - | - | - |
* Rain since midnight (hover to see other rain measurements)
** Current wind speed in m/s (hover to see current wind gust speed)